Time,TemperatureF,DewpointF,PressureIn,WindDirection,WindDirectionDegrees,WindSpeedMPH,WindSpeedGustMPH,Humidity,HourlyPrecipIn,Conditions,Clouds,dailyrainin,SoftwareType,DateUTC
2014-02-01 00:12:00,22.0,19.0,29.87,North,360,2.0,3.0,87,0.00,,,0.00,,2014-02-01 06:12:00,
2014-02-01 00:22:00,22.0,19.0,29.85,NNE,33,1.0,6.0,87,0.00,,,0.00,,2014-02-01 06:22:00,
2014-02-01 00:42:00,22.0,19.0,29.84,NE,56,3.0,6.0,88,0.00,,,0.00,,2014-02-01 06:42:00,
2014-02-01 00:52:00,22.0,19.0,29.93,West,279,0.0,4.0,88,0.00,,,0.00,,2014-02-01 06:52:00,
2014-02-01 01:22:00,22.0,19.0,29.86,ENE,64,0.0,0.0,88,0.00,,,0.00,,2014-02-01 07:22:00,
2014-02-01 01:42:00,22.0,19.0,29.88,NE,36,0.0,0.0,88,0.00,,,0.00,,2014-02-01 07:42:00,
2014-02-01 01:52:00,21.0,18.0,29.88,North,355,0.0,4.0,88,0.00,,,0.00,,2014-02-01 07:52:00,
2014-02-01 02:22:00,21.0,18.0,29.86,North,360,0.0,4.0,88,0.00,,,0.00,,2014-02-01 08:22:00,
2014-02-01 02:42:00,21.0,18.0,29.83,North,9,0.0,4.0,88,0.00,,,0.00,,2014-02-01 08:42:00,
2014-02-01 02:52:00,21.0,18.0,29.86,NNE,32,0.0,5.0,88,0.00,,,0.00,,2014-02-01 08:52:00,
2014-02-01 03:11:00,21.0,18.0,29.88,North,9,1.0,4.0,88,0.00,,,0.00,,2014-02-01 09:11:00,
2014-02-01 03:22:00,21.0,18.0,29.88,North,9,1.0,3.0,88,0.00,,,0.00,,2014-02-01 09:22:00,
2014-02-01 03:43:00,21.0,18.0,29.87,North,11,0.0,5.0,87,0.00,,,0.00,,2014-02-01 09:43:00,
2014-02-01 03:53:00,21.0,18.0,29.86,North,11,0.0,1.0,87,0.00,,,0.00,,2014-02-01 09:53:00,
2014-02-01 04:23:00,21.0,18.0,29.88,North,10,0.0,1.0,87,0.00,,,0.00,,2014-02-01 10:23:00,
2014-02-01 04:52:00,21.0,18.0,29.88,North,10,0.0,1.0,87,0.00,,,0.00,,2014-02-01 10:52:00,
2014-02-01 05:22:00,21.0,17.0,29.87,North,351,0.0,5.0,86,0.00,,,0.00,,2014-02-01 11:22:00,
2014-02-01 05:42:00,21.0,17.0,29.88,North,355,0.0,4.0,86,0.00,,,0.00,,2014-02-01 11:42:00,
2014-02-01 05:52:00,21.0,17.0,29.88,NNW,329,3.0,7.0,86,0.00,,,0.00,,2014-02-01 11:52:00,
2014-02-01 06:12:00,21.0,17.0,29.88,NNW,329,0.0,1.0,86,0.00,,,0.00,,2014-02-01 12:12:00,
2014-02-01 06:22:00,21.0,17.0,29.88,NNW,347,1.0,4.0,86,0.00,,,0.00,,2014-02-01 12:22:00,
2014-02-01 06:42:00,21.0,17.0,29.88,NNW,342,0.0,6.0,86,0.00,,,0.00,,2014-02-01 12:42:00,
2014-02-01 06:52:00,21.0,17.0,29.89,NW,321,1.0,6.0,86,0.00,,,0.00,,2014-02-01 12:52:00,
2014-02-01 07:11:00,21.0,17.0,29.90,NNW,347,0.0,7.0,86,0.00,,,0.00,,2014-02-01 13:11:00,
2014-02-01 07:22:00,21.0,17.0,29.90,NNW,345,2.0,6.0,86,0.00,,,0.00,,2014-02-01 13:22:00,
2014-02-01 07:42:00,21.0,17.0,29.91,North,349,1.0,7.0,86,0.00,,,0.00,,2014-02-01 13:42:00,
2014-02-01 07:52:00,21.0,17.0,29.92,North,360,1.0,6.0,86,0.00,,,0.00,,2014-02-01 13:52:00,
2014-02-01 08:12:00,21.0,17.0,29.93,North,360,1.0,5.0,86,0.00,,,0.00,,2014-02-01 14:12:00,
2014-02-01 08:22:00,21.0,17.0,29.93,North,11,2.0,4.0,85,0.00,,,0.00,,2014-02-01 14:22:00,
2014-02-01 08:52:00,22.0,18.0,29.96,NNW,331,2.0,6.0,86,0.00,,,0.00,,2014-02-01 14:52:00,
2014-02-01 09:11:00,22.0,18.0,29.96,NNW,341,2.0,6.0,86,0.00,,,0.00,,2014-02-01 15:11:00,
2014-02-01 09:22:00,22.0,18.0,29.96,North,355,3.0,4.0,86,0.00,,,0.00,,2014-02-01 15:22:00,
2014-02-01 09:54:00,23.0,19.0,29.97,NW,321,1.0,6.0,85,0.00,,,0.00,,2014-02-01 15:54:00,
2014-02-01 10:13:00,24.0,20.0,29.98,NW,326,1.0,3.0,84,0.00,,,0.00,,2014-02-01 16:13:00,
2014-02-01 10:23:00,24.0,20.0,29.98,NNE,15,1.0,5.0,83,0.00,,,0.00,,2014-02-01 16:23:00,
2014-02-01 10:53:00,25.0,20.0,30.00,NNW,333,2.0,5.0,82,0.00,,,0.00,,2014-02-01 16:53:00,
2014-02-01 11:23:00,25.0,20.0,30.02,North,5,2.0,6.0,80,0.00,,,0.00,,2014-02-01 17:23:00,
2014-02-01 11:42:00,26.0,21.0,30.02,NNW,333,4.0,9.0,80,0.00,,,0.00,,2014-02-01 17:42:00,
2014-02-01 11:53:00,26.0,20.0,30.02,NNE,19,4.0,7.0,79,0.00,,,0.00,,2014-02-01 17:53:00,
2014-02-01 12:12:00,26.0,20.0,30.02,NNW,334,3.0,7.0,78,0.00,,,0.00,,2014-02-01 18:12:00,
2014-02-01 12:22:00,27.0,21.0,30.01,NNE,13,4.0,7.0,78,0.00,,,0.00,,2014-02-01 18:22:00,
2014-02-01 12:43:00,27.0,21.0,30.01,NNE,19,3.0,8.0,77,0.00,,,0.00,,2014-02-01 18:43:00,
2014-02-01 12:52:00,27.0,21.0,30.01,North,360,2.0,7.0,77,0.00,,,0.00,,2014-02-01 18:52:00,
2014-02-01 13:11:00,28.0,21.0,30.00,NNW,341,3.0,9.0,76,0.00,,,0.00,,2014-02-01 19:11:00,
2014-02-01 13:22:00,28.0,21.0,29.99,NNE,31,2.0,7.0,75,0.01,,,0.01,,2014-02-01 19:22:00,
2014-02-01 13:42:00,28.0,21.0,30.00,NNW,331,1.0,6.0,76,0.02,,,0.02,,2014-02-01 19:42:00,
2014-02-01 13:52:00,28.0,21.0,30.00,NNW,341,3.0,12.0,74,0.03,,,0.03,,2014-02-01 19:52:00,
2014-02-01 14:22:00,28.0,21.0,30.00,North,11,4.0,11.0,75,0.03,,,0.04,,2014-02-01 20:22:00,
2014-02-01 14:42:00,28.0,21.0,30.00,North,9,3.0,12.0,75,0.02,,,0.04,,2014-02-01 20:42:00,
2014-02-01 14:52:00,28.0,21.0,30.00,NW,316,4.0,9.0,75,0.02,,,0.05,,2014-02-01 20:52:00,
2014-02-01 15:22:00,29.0,22.0,30.01,North,355,4.0,9.0,74,0.02,,,0.06,,2014-02-01 21:22:00,
2014-02-01 15:43:00,29.0,22.0,30.01,North,355,3.0,10.0,74,0.02,,,0.06,,2014-02-01 21:43:00,
2014-02-01 15:53:00,29.0,22.0,30.02,North,360,2.0,9.0,74,0.01,,,0.06,,2014-02-01 21:53:00,
2014-02-01 16:23:00,30.0,23.0,30.03,NE,42,0.0,11.0,74,0.01,,,0.07,,2014-02-01 22:23:00,
2014-02-01 16:43:00,30.0,23.0,30.04,North,9,2.0,4.0,75,0.01,,,0.07,,2014-02-01 22:43:00,
2014-02-01 16:53:00,29.0,22.0,30.05,North,355,2.0,9.0,75,0.01,,,0.07,,2014-02-01 22:53:00,
2014-02-01 17:12:00,29.0,22.0,30.06,North,355,3.0,9.0,75,0.01,,,0.08,,2014-02-01 23:12:00,
2014-02-01 17:22:00,28.0,21.0,30.07,WNW,284,3.0,10.0,75,0.01,,,0.08,,2014-02-01 23:22:00,
2014-02-01 17:42:00,27.0,20.0,30.09,NW,323,4.0,11.0,76,0.01,,,0.08,,2014-02-01 23:42:00,
2014-02-01 17:53:00,27.0,20.0,30.10,North,360,4.0,11.0,76,0.01,,,0.08,,2014-02-01 23:53:00,
2014-02-01 18:22:00,26.0,19.0,30.11,NNW,342,3.0,15.0,75,0.00,,,0.08,,2014-02-02 00:22:00,
2014-02-01 18:42:00,25.0,18.0,30.12,NNW,343,4.0,10.0,75,0.00,,,0.08,,2014-02-02 00:42:00,
2014-02-01 18:52:00,25.0,18.0,30.13,NNW,340,3.0,12.0,75,0.00,,,0.08,,2014-02-02 00:52:00,
2014-02-01 19:11:00,24.0,17.0,30.14,NNE,13,3.0,14.0,75,0.00,,,0.08,,2014-02-02 01:11:00,
2014-02-01 19:22:00,24.0,17.0,30.15,NNE,13,3.0,11.0,75,0.00,,,0.08,,2014-02-02 01:22:00,
2014-02-01 19:42:00,24.0,17.0,30.16,NNW,346,3.0,10.0,75,0.00,,,0.08,,2014-02-02 01:42:00,
2014-02-01 19:52:00,24.0,18.0,30.18,NNW,340,4.0,11.0,76,0.00,,,0.08,,2014-02-02 01:52:00,
2014-02-01 20:11:00,24.0,18.0,30.18,North,349,2.0,11.0,77,0.00,,,0.08,,2014-02-02 02:11:00,
2014-02-01 20:22:00,23.0,17.0,30.20,NNW,339,2.0,10.0,77,0.00,,,0.08,,2014-02-02 02:22:00,
2014-02-01 20:42:00,23.0,17.0,30.20,NNW,342,2.0,8.0,77,0.00,,,0.08,,2014-02-02 02:42:00,
2014-02-01 20:52:00,23.0,17.0,30.22,North,360,2.0,6.0,78,0.00,,,0.08,,2014-02-02 02:52:00,
2014-02-01 21:11:00,22.0,16.0,30.22,North,360,1.0,11.0,78,0.00,,,0.08,,2014-02-02 03:11:00,
2014-02-01 21:22:00,22.0,16.0,30.22,NNE,21,0.0,4.0,79,0.00,,,0.08,,2014-02-02 03:22:00,
2014-02-01 21:43:00,22.0,16.0,30.23,NNE,21,0.0,1.0,79,0.00,,,0.08,,2014-02-02 03:43:00,
2014-02-01 21:53:00,22.0,16.0,30.24,NNE,21,0.0,0.0,78,0.00,,,0.08,,2014-02-02 03:53:00,
2014-02-01 22:02:00,-999.0,-99.9,30.24,NNE,13,1.0,5.0,-999,-99.99,,,-99.99,,2014-02-02 04:02:00,
2014-02-01 22:23:00,21.0,15.0,30.24,NNE,29,0.0,6.0,76,0.00,,,0.08,,2014-02-02 04:23:00,
2014-02-01 22:43:00,21.0,14.0,30.25,NE,56,0.0,4.0,74,0.00,,,0.08,,2014-02-02 04:43:00,
2014-02-01 22:53:00,21.0,14.0,30.25,NE,35,1.0,5.0,74,0.00,,,0.08,,2014-02-02 04:53:00,
2014-02-01 23:13:00,20.0,13.0,30.25,NE,35,1.0,3.0,74,0.00,,,0.08,,2014-02-02 05:13:00,
2014-02-01 23:22:00,19.0,12.0,30.25,North,9,0.0,3.0,74,0.00,,,0.08,,2014-02-02 05:22:00,
2014-02-01 23:43:00,18.0,11.0,30.25,North,355,1.0,6.0,75,0.00,,,0.08,,2014-02-02 05:43:00,
2014-02-01 23:52:00,17.0,11.0,30.26,North,350,1.0,5.0,77,0.00,,,0.08,,2014-02-02 05:52:00,